Prairie Du Chien, WI

3:15 PM CDT on April 22, 2018 (GMT -0500)
Prairie Du Chien Municipal

Weather History for KPDC - October, 2011

Change the Weather History Date:

Thursday, October 13, 2011

  Actual Average Record
Temperature  
Mean Temperature 60 °F -  
Max Temperature 67 °F 62 °F 90 °F (1975)
Min Temperature 51 °F 39 °F 23 °F (1988)
Degree Days  
Heating Degree Days 6    
Growing Degree Days 10 (Base 50)    
Moisture  
Dew Point 52 °F    
Average Humidity 77    
Maximum Humidity 97    
Minimum Humidity 47    
Precipitation  
Precipitation 0.02 in - - ()
Sea Level Pressure  
Sea Level Pressure 29.58 in    
Wind  
Wind Speed 6 mph (WNW)    
Max Wind Speed 23 mph    
Max Gust Speed 31 mph    
Visibility 9 miles    
Events Rain    
Averages and records for this station are not official NWS values.
T = Trace of Precipitation, MM = Missing Value Source: NWS Daily Summary

Daily Weather History Graph

Daily Weather History Graph

Search for Another Location

Airport or City:

Astronomy

Oct. 13, 2011 Rise Set
Actual Time 7:15 AM CDT 6:25 PM CDT
Civil Twilight 6:46 AM CDT 6:53 PM CDT
Nautical Twilight 6:13 AM CDT 7:26 PM CDT
Astronomical Twilight 5:40 AM CDT 7:59 PM CDT
Moon 6:56 PM CDT (10/13) 8:51 AM CDT (10/13)
Length of Visible Light 12h 07m
Length of Day
11h 10m
Full, 98% of the Moon is Illuminated
Oct 13
Full
Oct 19
Last Quarter
Oct 26
New
Nov 2
First Quarter
Nov 10
Full

Hourly Weather History & Observations

Time (CDT) Temp. Dew Point Humidity Pressure Visibility Wind Dir Wind Speed Gust Speed Precip Events Conditions
12:15 AM 59.0 °F 57.4 °F 94% 29.60 in 5.0 mi Calm Calm - N/A Rain Rain
12:35 AM 58.8 °F 57.4 °F 95% 29.60 in 5.0 mi Calm Calm - N/A   Light Drizzle
12:55 AM 58.6 °F 57.2 °F 95% 29.59 in 5.0 mi Calm Calm - N/A   Light Drizzle
1:15 AM 58.5 °F 57.4 °F 96% 29.59 in 3.0 mi Calm Calm - N/A   Overcast
1:35 AM 58.3 °F 57.2 °F 96% 29.59 in 5.0 mi Calm Calm - N/A   Overcast
1:55 AM 58.1 °F 57.2 °F 97% 29.59 in 4.0 mi Calm Calm - N/A   Overcast
2:15 AM 58.1 °F 57.2 °F 97% 29.58 in 4.0 mi Calm Calm - N/A   Overcast
2:35 AM 58.1 °F 57.2 °F 97% 29.58 in 3.0 mi Calm Calm - 0.01 in   Overcast
2:55 AM 58.1 °F 57.2 °F 97% 29.57 in 3.0 mi Calm Calm - 0.01 in   Overcast
3:15 AM 58.5 °F 57.4 °F 96% 29.57 in 4.0 mi Calm Calm - N/A   Overcast
3:35 AM 58.6 °F 57.4 °F 96% 29.57 in 5.0 mi Calm Calm - N/A   Overcast
3:55 AM 59.0 °F 57.4 °F 94% 29.57 in 5.0 mi West 3.5 mph - N/A   Overcast
4:15 AM 59.0 °F 57.2 °F 94% 29.57 in 5.0 mi Calm Calm - N/A   Light Drizzle
4:35 AM 59.0 °F 57.4 °F 94% 29.57 in 5.0 mi Calm Calm - N/A   Drizzle
4:55 AM 59.0 °F 57.4 °F 94% 29.57 in 5.0 mi West 6.9 mph - N/A   Drizzle
5:15 AM 59.2 °F 57.2 °F 93% 29.57 in 7.0 mi WNW 6.9 mph - N/A   Light Drizzle
5:35 AM 59.0 °F 56.7 °F 92% 29.58 in 10.0 mi WNW 6.9 mph - N/A   Overcast
5:55 AM 59.0 °F 56.3 °F 91% 29.58 in 10.0 mi WNW 9.2 mph - N/A   Overcast
6:15 AM 58.8 °F 55.9 °F 90% 29.59 in 10.0 mi WNW 8.1 mph - N/A   Overcast
6:35 AM 58.6 °F 55.6 °F 90% 29.59 in 10.0 mi WNW 6.9 mph - N/A   Overcast
6:55 AM 58.5 °F 55.4 °F 90% 29.58 in 10.0 mi WNW 8.1 mph - N/A   Light Drizzle
7:15 AM 58.5 °F 55.4 °F 90% 29.58 in 10.0 mi WNW 6.9 mph - N/A   Overcast
7:35 AM 58.1 °F 55.2 °F 90% 29.58 in 10.0 mi WNW 6.9 mph - N/A Rain Light Rain
7:55 AM 58.1 °F 55.2 °F 90% 29.59 in 10.0 mi West 6.9 mph - N/A Rain Light Rain
8:15 AM 58.1 °F 55.4 °F 91% 29.59 in 10.0 mi West 8.1 mph - N/A   Overcast
8:35 AM 58.1 °F 55.0 °F 90% 29.59 in 10.0 mi WNW 8.1 mph - N/A   Overcast
9:15 AM 58.6 °F 54.9 °F 87% 29.59 in 10.0 mi WNW 11.5 mph - N/A   Overcast
9:55 AM 59.5 °F 54.5 °F 83% 29.59 in 10.0 mi NW 6.9 mph - N/A   Overcast
10:15 AM 59.9 °F 54.3 °F 82% 29.60 in 10.0 mi WNW 8.1 mph - N/A   Overcast
10:35 AM 60.4 °F 54.3 °F 80% 29.59 in 10.0 mi WNW 6.9 mph - N/A   Overcast
10:55 AM 61.0 °F 54.5 °F 79% 29.60 in 10.0 mi WNW 10.4 mph - N/A   Overcast
11:15 AM 61.3 °F 54.0 °F 77% 29.60 in 10.0 mi West 9.2 mph - N/A   Overcast
11:35 AM 60.8 °F 54.1 °F 79% 29.59 in 10.0 mi WNW 12.7 mph 18.4 mph N/A   Overcast
11:55 AM 61.0 °F 53.8 °F 77% 29.59 in 10.0 mi WNW 6.9 mph 16.1 mph N/A   Overcast
12:15 PM 62.6 °F 53.8 °F 73% 29.59 in 10.0 mi NW 12.7 mph - 0.01 in   Mostly Cloudy
12:35 PM 64.6 °F 52.9 °F 66% 29.57 in 10.0 mi West 12.7 mph 19.6 mph 0.01 in   Mostly Cloudy
12:55 PM 65.5 °F 51.3 °F 60% 29.57 in 10.0 mi West 13.8 mph 19.6 mph 0.01 in   Scattered Clouds
1:15 PM 66.6 °F 50.5 °F 56% 29.56 in 10.0 mi WNW 12.7 mph 21.9 mph N/A   Scattered Clouds
1:35 PM 67.5 °F 49.1 °F 52% 29.55 in 10.0 mi NW 18.4 mph 28.8 mph N/A   Scattered Clouds
1:55 PM 66.7 °F 48.4 °F 52% 29.55 in 10.0 mi WNW 15.0 mph 25.3 mph N/A   Scattered Clouds
2:15 PM 67.3 °F 48.2 °F 50% 29.54 in 10.0 mi West 18.4 mph 25.3 mph N/A   Scattered Clouds
2:35 PM 67.8 °F 46.8 °F 47% 29.54 in 10.0 mi West 19.6 mph 26.5 mph N/A   Scattered Clouds
2:55 PM 67.6 °F 46.6 °F 47% 29.54 in 10.0 mi West 15.0 mph 25.3 mph N/A   Mostly Cloudy
3:15 PM 66.9 °F 46.4 °F 48% 29.55 in 10.0 mi West 16.1 mph 23.0 mph N/A   Scattered Clouds
3:35 PM 66.7 °F 46.8 °F 49% 29.55 in 10.0 mi West 19.6 mph 26.5 mph N/A   Scattered Clouds
3:55 PM 65.3 °F 47.8 °F 53% 29.56 in 10.0 mi WNW 23.0 mph 27.6 mph N/A   Scattered Clouds
4:15 PM 63.0 °F 47.1 °F 56% 29.57 in 10.0 mi WNW 15.0 mph 25.3 mph N/A   Scattered Clouds
4:35 PM 61.5 °F 46.0 °F 57% 29.57 in 10.0 mi WNW 13.8 mph 21.9 mph N/A   Scattered Clouds
4:55 PM 61.3 °F 46.0 °F 57% 29.58 in 10.0 mi WNW 15.0 mph 21.9 mph N/A   Scattered Clouds
5:15 PM 60.8 °F 45.7 °F 57% 29.58 in 10.0 mi West 13.8 mph 17.3 mph N/A   Mostly Cloudy
5:55 PM 59.2 °F 44.6 °F 58% 29.60 in 10.0 mi NW 19.6 mph 31.1 mph N/A   Overcast
6:15 PM 57.0 °F 42.8 °F 59% 29.61 in 10.0 mi WNW 12.7 mph 27.6 mph N/A   Overcast
6:35 PM 56.1 °F 42.3 °F 60% 29.61 in 10.0 mi WNW 10.4 mph 18.4 mph N/A   Mostly Cloudy
6:55 PM 55.6 °F 42.8 °F 62% 29.61 in 10.0 mi West 10.4 mph 16.1 mph N/A   Scattered Clouds
7:15 PM 54.9 °F 43.2 °F 65% 29.61 in 10.0 mi West 8.1 mph - N/A   Scattered Clouds
7:35 PM 54.9 °F 43.5 °F 66% 29.61 in 10.0 mi West 6.9 mph - N/A   Overcast
8:15 PM 54.3 °F 43.7 °F 67% 29.62 in 10.0 mi West 4.6 mph - N/A   Overcast
8:35 PM 54.1 °F 44.2 °F 69% 29.62 in 10.0 mi West 4.6 mph - N/A   Mostly Cloudy
9:15 PM 52.0 °F 44.4 °F 75% 29.62 in 10.0 mi West 3.5 mph - N/A   Scattered Clouds
9:35 PM 51.4 °F 44.2 °F 76% 29.62 in 10.0 mi WNW 4.6 mph - N/A   Clear
9:55 PM 50.7 °F 44.4 °F 79% 29.62 in 10.0 mi WNW 5.8 mph - N/A   Clear
10:15 PM 51.3 °F 44.6 °F 78% 29.62 in 10.0 mi WNW 4.6 mph - N/A   Clear
10:35 PM 50.9 °F 44.2 °F 78% 29.62 in 10.0 mi Calm Calm - N/A   Clear
10:55 PM 50.2 °F 44.1 °F 79% 29.62 in 10.0 mi Calm Calm - N/A   Clear
11:15 PM 49.6 °F 43.9 °F 81% 29.61 in 10.0 mi Calm Calm - N/A   Clear
11:35 PM 49.5 °F 43.5 °F 80% 29.61 in 10.0 mi Calm Calm - N/A   Clear
11:55 PM 49.3 °F 42.8 °F 78% 29.61 in 10.0 mi WNW 3.5 mph - N/A   Scattered Clouds